When you browse on this site, cookies collect data to enhance your experience and personalize the content and advertising you see.
Visit our Privacy Policy to learn more. By continuing to use the site, you agree to this use of cookies and data.
EN

Hourly Weather Pietrusin

Today, 28 September, Monday

Time Temperature Precipitation Wind Pressure Humidity
00:00 +8°C° 0 mm 2 mps 749 mmHg 84%
01:00 +7°C° 0 mm 2 mps 749 mmHg 84%
02:00 +7°C° 0 mm 2 mps 749 mmHg 85%
03:00 +7°C° 0 mm 2 mps 749 mmHg 85%
04:00 +7°C° 0 mm 2 mps 749 mmHg 85%
05:00 +7°C° 0 mm 2 mps 750 mmHg 84%
06:00 +8°C° 0 mm 2 mps 750 mmHg 83%
07:00 +9°C° 0 mm 3 mps 750 mmHg 80%
08:00 +10°C° 0 mm 3 mps 750 mmHg 75%
09:00 +12°C° 0 mm 3 mps 750 mmHg 70%
10:00 +14°C° 0 mm 3 mps 750 mmHg 65%
11:00 +15°C° 0 mm 4 mps 750 mmHg 61%
12:00 +17°C° 0 mm 4 mps 750 mmHg 57%
13:00 +18°C° 0 mm 4 mps 749 mmHg 54%
14:00 +17°C° 0 mm 4 mps 749 mmHg 58%
15:00 +17°C° 0 mm 4 mps 749 mmHg 61%
16:00 +17°C° 0 mm 4 mps 748 mmHg 65%
17:00 +15°C° 0 mm 4 mps 748 mmHg 68%
18:00 +15°C° 0 mm 4 mps 748 mmHg 71%
19:00 +14°C° 0 mm 4 mps 748 mmHg 75%
20:00 +14°C° 0 mm 4 mps 748 mmHg 77%
21:00 +13°C° 0 mm 3 mps 748 mmHg 79%
22:00 +13°C° 0 mm 3 mps 748 mmHg 81%
23:00 +12°C° 0 mm 3 mps 748 mmHg 83%

Tomorrow, 29 September, Tuesday

Time Temperature Precipitation Wind Pressure Humidity
00:00 +13°C° 0 mm 2 mps 748 mmHg 84%
01:00 +12°C° 0 mm 2 mps 748 mmHg 86%
02:00 +12°C° 0 mm 2 mps 748 mmHg 85%
03:00 +12°C° 0 mm 2 mps 747 mmHg 84%
04:00 +12°C° 0 mm 2 mps 747 mmHg 84%
05:00 +12°C° 0 mm 2 mps 747 mmHg 83%
06:00 +12°C° 0 mm 2 mps 747 mmHg 83%
07:00 +13°C° 0 mm 1 mps 748 mmHg 83%
08:00 +14°C° 0 mm 2 mps 748 mmHg 79%
09:00 +15°C° 0 mm 2 mps 748 mmHg 74%
10:00 +17°C° 0 mm 2 mps 748 mmHg 70%
11:00 +17°C° 0 mm 2 mps 748 mmHg 69%
12:00 +18°C° 0 mm 1 mps 748 mmHg 69%
13:00 +19°C° 0 mm 1 mps 748 mmHg 68%
14:00 +18°C° 0.1 mm 1 mps 748 mmHg 71%
15:00 +18°C° 0.1 mm 1 mps 748 mmHg 74%
16:00 +18°C° 0.1 mm 1 mps 748 mmHg 77%
17:00 +16°C° 0.6 mm 1 mps 748 mmHg 83%
18:00 +15°C° 0.6 mm 2 mps 748 mmHg 88%
19:00 +14°C° 0.6 mm 2 mps 748 mmHg 93%
20:00 +14°C° 0.2 mm 2 mps 748 mmHg 92%
21:00 +14°C° 0.2 mm 2 mps 748 mmHg 92%
22:00 +14°C° 0.2 mm 2 mps 748 mmHg 91%
23:00 +14°C° 0.1 mm 2 mps 748 mmHg 90%

Day after tomorrow, 30 September, Wednesday

Time Temperature Precipitation Wind Pressure Humidity
00:00 +13°C° 0.1 mm 2 mps 748 mmHg 89%
01:00 +12°C° 0.1 mm 3 mps 748 mmHg 88%
02:00 +12°C° 0.1 mm 3 mps 748 mmHg 88%
03:00 +12°C° 0.1 mm 4 mps 747 mmHg 87%
04:00 +12°C° 0.1 mm 4 mps 747 mmHg 86%
05:00 +11°C° 0.2 mm 4 mps 747 mmHg 87%
06:00 +11°C° 0.2 mm 4 mps 747 mmHg 88%
07:00 +11°C° 0.2 mm 4 mps 747 mmHg 89%
08:00 +11°C° 0.2 mm 4 mps 747 mmHg 89%
09:00 +12°C° 0.2 mm 4 mps 747 mmHg 89%
10:00 +12°C° 0.2 mm 4 mps 746 mmHg 89%
11:00 +12°C° 0.2 mm 4 mps 746 mmHg 88%
12:00 +12°C° 0.2 mm 5 mps 746 mmHg 87%
13:00 +12°C° 0.2 mm 5 mps 746 mmHg 86%
14:00 +13°C° 0.4 mm 5 mps 745 mmHg 87%
15:00 +13°C° 0.4 mm 4 mps 745 mmHg 88%
16:00 +13°C° 0.4 mm 4 mps 745 mmHg 88%
17:00 +13°C° 0.4 mm 4 mps 745 mmHg 89%
18:00 +13°C° 0.4 mm 3 mps 745 mmHg 89%
19:00 +13°C° 0.4 mm 3 mps 746 mmHg 89%
20:00 +12°C° 0 mm 3 mps 745 mmHg 88%
21:00 +12°C° 0 mm 3 mps 745 mmHg 88%
22:00 +12°C° 0 mm 3 mps 745 mmHg 87%
23:00 +12°C° 0 mm 3 mps 745 mmHg 87%

1 October, Thursday

Time Temperature Precipitation Wind Pressure Humidity
00:00 +11°C° 0 mm 3 mps 745 mmHg 86%
01:00 +11°C° 0 mm 3 mps 745 mmHg 86%
02:00 +11°C° 0 mm 3 mps 744 mmHg 86%
03:00 +11°C° 0 mm 3 mps 744 mmHg 86%
04:00 +11°C° 0 mm 3 mps 744 mmHg 86%
05:00 +11°C° 0 mm 3 mps 744 mmHg 86%
06:00 +11°C° 0 mm 3 mps 744 mmHg 85%
07:00 +11°C° 0 mm 3 mps 744 mmHg 85%
08:00 +11°C° 0.1 mm 3 mps 744 mmHg 85%
09:00 +11°C° 0.1 mm 3 mps 744 mmHg 85%
10:00 +11°C° 0.1 mm 3 mps 744 mmHg 86%
11:00 +11°C° 0 mm 3 mps 743 mmHg 85%
12:00 +12°C° 0 mm 3 mps 743 mmHg 84%
13:00 +12°C° 0 mm 3 mps 743 mmHg 83%
14:00 +14°C° 0 mm 2 mps 743 mmHg 84%
15:00 +14°C° 0 mm 2 mps 743 mmHg 84%
16:00 +14°C° 0 mm 2 mps 743 mmHg 85%
17:00 +13°C° 0 mm 2 mps 743 mmHg 88%
18:00 +13°C° 0 mm 2 mps 744 mmHg 91%
19:00 +12°C° 0 mm 2 mps 744 mmHg 94%
20:00 +12°C° 0 mm 2 mps 744 mmHg 95%
21:00 +12°C° 0 mm 2 mps 744 mmHg 95%
22:00 +12°C° 0 mm 2 mps 744 mmHg 96%
23:00 +10°C° 0 mm 2 mps 744 mmHg 96%

2 October, Friday

Time Temperature Precipitation Wind Pressure Humidity
00:00 +10°C° 0 mm 3 mps 744 mmHg 96%
01:00 +10°C° 0 mm 3 mps 743 mmHg 97%
02:00 +10°C° 0 mm 3 mps 744 mmHg 96%
03:00 +11°C° 0 mm 3 mps 744 mmHg 95%
04:00 +11°C° 0 mm 3 mps 744 mmHg 95%
05:00 +11°C° 0 mm 3 mps 744 mmHg 94%
06:00 +11°C° 0 mm 3 mps 744 mmHg 93%
07:00 +11°C° 0 mm 3 mps 744 mmHg 93%
08:00 +13°C° 0 mm 3 mps 744 mmHg 87%
09:00 +14°C° 0 mm 3 mps 744 mmHg 82%
10:00 +16°C° 0 mm 3 mps 744 mmHg 76%
11:00 +17°C° 0 mm 4 mps 744 mmHg 75%
12:00 +17°C° 0 mm 4 mps 744 mmHg 73%
13:00 +17°C° 0 mm 5 mps 744 mmHg 72%
14:00 +17°C° 0 mm 4 mps 744 mmHg 74%
15:00 +17°C° 0 mm 4 mps 744 mmHg 76%
16:00 +15°C° 0 mm 4 mps 744 mmHg 78%
17:00 +14°C° 0 mm 4 mps 744 mmHg 82%
18:00 +14°C° 0 mm 5 mps 745 mmHg 85%
19:00 +13°C° 0 mm 5 mps 745 mmHg 88%
20:00 +13°C° 0 mm 5 mps 745 mmHg 88%
21:00 +13°C° 0 mm 5 mps 745 mmHg 89%
22:00 +12°C° 0 mm 5 mps 745 mmHg 89%
23:00 +13°C° 0 mm 4 mps 745 mmHg 88%

3 October, Saturday

Time Temperature Precipitation Wind Pressure Humidity
00:00 +13°C° 0 mm 4 mps 745 mmHg 88%
01:00 +13°C° 0 mm 4 mps 745 mmHg 87%
02:00 +13°C° 0.6 mm 4 mps 744 mmHg 89%
03:00 +12°C° 0.6 mm 4 mps 744 mmHg 92%
04:00 +12°C° 0.6 mm 5 mps 744 mmHg 94%
05:00 +13°C° 1.1 mm 5 mps 744 mmHg 94%
06:00 +13°C° 1.1 mm 6 mps 744 mmHg 94%
07:00 +13°C° 1.1 mm 6 mps 743 mmHg 93%
08:00 +14°C° 0.1 mm 6 mps 743 mmHg 90%
09:00 +14°C° 0.1 mm 7 mps 743 mmHg 87%
10:00 +15°C° 0.1 mm 7 mps 743 mmHg 85%
11:00 +16°C° 0 mm 7 mps 743 mmHg 81%
12:00 +17°C° 0 mm 6 mps 743 mmHg 77%
13:00 +19°C° 0 mm 6 mps 743 mmHg 73%
14:00 +19°C° 0 mm 5 mps 743 mmHg 72%
15:00 +20°C° 0 mm 4 mps 743 mmHg 72%
16:00 +20°C° 0 mm 3 mps 743 mmHg 71%
17:00 +19°C° 0 mm 3 mps 743 mmHg 73%
18:00 +19°C° 0 mm 4 mps 743 mmHg 75%
19:00 +18°C° 0 mm 4 mps 742 mmHg 77%
20:00 +18°C° 0 mm 4 mps 742 mmHg 77%
21:00 +18°C° 0 mm 4 mps 742 mmHg 76%
22:00 +18°C° 0 mm 4 mps 742 mmHg 76%
23:00 +18°C° 0 mm 4 mps 742 mmHg 77%
Show more